Simultaneous Nadir Overpasses (SNOs) Predictions

Prediction of SNOs between LANDSAT-8 and METOP-B Satellite Orbit:

Table of predicted SNOs for the next 14.0 days since TLE Epoch: 4/29/2023
Index Date (LANDSAT-8) Time (LANDSAT-8) Lat,Lon (LANDSAT-8) SZA (LANDSAT-8 ) Date (METOP-B) Time (METOP-B) Lat,Lon (METOP-B) SZA (METOP-B ) Distance(km) Time Diff (sec)
1 04/29/2023 04:25:54 80.48, 144.95 67.58 04/29/2023 04:24:43 80.69, 144.17 67.66 27.36 71
2 04/29/2023 05:14:57 -81.14, -39.30 111.12 04/29/2023 05:14:58 -81.14, -39.22 111.11 1.41 1
3 04/29/2023 06:03:37 81.83, 146.91 71.43 04/29/2023 06:04:50 81.32, 147.25 71.26 57.26 73
4 05/01/2023 23:59:45 81.11,-140.90 67.98 05/01/2023 23:58:40 81.11,-140.92 67.96 0.44 65
5 05/02/2023 00:49:11 -81.13, 27.05 111.98 05/02/2023 00:49:19 -81.14, 27.08 111.97 0.84 8
6 05/04/2023 19:33:58 81.11, -74.40 67.18 05/04/2023 19:33:00 81.12, -74.34 67.16 1.11 58
7 05/04/2023 20:23:24 -81.14, 93.57 112.79 05/04/2023 20:23:39 -81.14, 93.68 112.76 1.97 15
8 05/07/2023 15:08:09 81.13, -7.72 66.43 05/07/2023 15:07:19 81.12, -7.84 66.39 2.27 50
9 05/07/2023 15:57:35 -81.15, 160.28 113.53 05/07/2023 15:57:58 -81.15, 160.21 113.53 1.32 23
10 05/10/2023 10:42:21 81.13, 58.78 65.69 05/10/2023 10:41:38 81.14, 58.97 65.69 3.25 43



Historial Predications of SNOs between LANDSAT-8 and METOP-B
